Regional Weather Roundup
Issued by NWS

Home | Current Version | Previous Version | Text Only | Print | Product List | Glossary Off
Versions: 1 2 3 4 5 6 7 8 9 10 11 12 13 14 15 16 17 18 19 20 21 22 23 24 25 26 27 28 29 30 31 32 33 34 35 36 37 38 39 40 41 42 43 44 45 46 47 48

000
ASUS45 KBOI 141010
RWRID
WEATHER ROUNDUP FOR IDAHO
NATIONAL WEATHER SERVICE BOISE ID
400 AM MDT SUN SEP 14 2014

NOTE: "FAIR" INDICATES FEW OR NO CLOUDS BELOW 12000 FEET
WITH NO SIGNIFICANT WEATHER AND/OR OBSTRUCTIONS TO VISIBILITY

IDZ012-014-141100-
SOUTHWEST IDAHO


CITY           SKY/WX    TMP DP  RH WIND       PRES   REMARKS
BOISE          CLEAR     58  30  34 SE7       29.93R
CALDWELL       CLEAR     46  32  57 CALM      29.95S
MOUNTAIN HOME  CLEAR     48  23  37 VRB1      29.94R HAZE
$$

IDZ016-017-141100-
SOUTHCENTRAL IDAHO


CITY           SKY/WX    TMP DP  RH WIND       PRES   REMARKS
BURLEY         MOCLDY    48  36  63 S5        29.99S
JEROME         PTCLDY    56  33  42 CALM      29.99S
TWIN FALLS     MOCLDY    57  31  37 S8        29.98S
$$

IDZ019>023-141100-
SOUTHEAST IDAHO


CITY           SKY/WX    TMP DP  RH WIND       PRES   REMARKS
IDAHO FALLS    CLEAR     45  34  65 CALM      30.03R
POCATELLO      CLEAR     44  33  65 S7        30.01S
REXBURG        CLEAR     40  33  76 NE5       30.04R
$$

IDZ006-010-011-018-031-032-141100-
CENTRAL IDAHO MOUNTAINS


CITY           SKY/WX    TMP DP  RH WIND       PRES   REMARKS
MCCALL         CLEAR     40  27  59 NE6       30.04S
HAILEY         CLEAR     50  28  43 NW12      30.08R
STANLEY          N/A     32  21  64 CALM      30.16S
SALMON         CLEAR     37  30  75 CALM      30.03R
CHALLIS        CLEAR     41  25  53 CALM      30.06R
$$

IDZ002-004-006-007-026-141100-
NORTHERN IDAHO


CITY           SKY/WX    TMP DP  RH WIND       PRES   REMARKS
LEWISTON       CLEAR     56  26  31 CALM      29.94R
LOWELL           N/A     45  40  82 CALM      30.02R
COEUR D`ALENE  CLEAR     45  34  65 E8        29.98R
MULLAN PASS    CLEAR     47  25  42 VRB6      30.07R
$$



USA.gov is the U.S. government's official web portal to all federal, state and local government web resources and services.